Regional Weather Roundup
Issued by NWS

Home | Current Version | Previous Version | Graphics & Text | Print | Product List | Glossary On
Versions: 1 2 3 4 5 6 7 8 9 10 11 12 13 14 15 16 17 18 19 20 21 22 23 24 25 26 27 28 29 30 31 32 33 34 35 36 37 38 39 40 41 42 43 44 45 46 47 48 49 50
000
ASUS45 KTFX 281810
RWRMT
MONTANA REGIONAL WEATHER ROUNDUP
NATIONAL WEATHER SERVICE GREAT FALLS MT
1200 PM MDT TUE JUL 28 2015

NOTE: "FAIR" INDICATES FEW OR NO CLOUDS BELOW 12000 FEET WITH NO
SIGNIFICANT WEATHER AND/OR OBSTRUCTIONS TO VISIBILITY.

MTZ001>007-043-281900-
WEST OF THE DIVIDE

CITY           SKY/WX    TMP DP  RH WIND       PRES   REMARKS
KALISPELL      PTCLDY    66  44  45 S8        30.18F
MISSOULA       SUNNY     62  46  55 VRB6      30.25S
BUTTE          PTSUNNY   56  36  47 NW14G20   30.30R
MULLAN PASS    MOSUNNY   54  41  61 VRB5      30.31R
DEER LODGE       N/A     59  37  44 NW8       30.30S
EUREKA           N/A     66  45  45 S6        30.17F
HAMILTON         N/A     66  37  34 S7        30.26S
LIBBY            N/A     63  46  55 N3        30.19F
PLAINS           N/A     69  45  42 CALM      30.20F
RONAN            N/A     66  43  43 SW9       30.25S
$$

MTZ008-052>055-281900-
SOUTHWEST MONTANA

CITY           SKY/WX    TMP DP  RH WIND       PRES   REMARKS
BOZEMAN        PTSUNNY   62  38  40 W13G21    30.25S
DILLON         CLOUDY    56  40  55 W9        30.30R
W YELLOWSTONE  MOSUNNY   50  36  57 SW8G16    30.35S
TWIN BRIDGES     N/A     56  40  55 E9        30.26R
$$

MTZ009-010-012-014-046-048-049-054-281900-
EAST SLOPES AND CENTRAL MONTANA

CITY           SKY/WX    TMP DP  RH WIND       PRES   REMARKS
CUT BANK       MOSUNNY   69  36  29 NW14G25   30.09S
GREAT FALLS    MOSUNNY   69  40  34 W21       30.11R
MALMSTROM AFB  PTSUNNY   66  38  36 W16       30.11R
HELENA         MOSUNNY   65  40  39 W18G28    30.21R
CONRAD           N/A     69  42  37 NW13      30.12R
$$

MTZ011-013-016-021-045-047-050-051-281900-
NORTH CENTRAL MONTANA

CITY           SKY/WX    TMP DP  RH WIND       PRES   REMARKS
HAVRE          CLOUDY    67  49  52 NW23G30   29.98R
LEWISTOWN      PTSUNNY   62  41  46 W24G37    30.11R
CHINOOK          N/A     63  48  59 W22G29    29.94S
FORT BENTON      N/A     70  39  32 W23G31    30.06R
$$

MTZ017>020-022>027-061-062-281900-
NORTHEAST MONTANA

CITY           SKY/WX    TMP DP  RH WIND       PRES   REMARKS
GLASGOW        LGT RAIN  57  53  86 W29G40    29.77R
JORDAN           N/A     62  53  72 W31G43    29.92R
SIDNEY         PTSUNNY   63  52  67 SW32G43   29.66S
WOLF POINT     LGT RAIN  60  53  77 W36G51    29.70R
PLENTYWOOD       N/A     57  55  94 W35G51    29.43R
POPLAR           N/A    N/A N/A N/A MISG        N/A
SCOBEY           N/A     55  49  80 W33       29.58R
$$

MTZ028>42-056>058-281900-
SOUTHCENTRAL AND SOUTHEAST MONTANA

CITY           SKY/WX    TMP DP  RH WIND       PRES   REMARKS
BAKER          CLOUDY    61  47  59 W36G56    29.87R
BILLINGS       PTSUNNY   65  39  38 W25G35    30.14R
LIVINGSTON     CLOUDY    61  37  41 W22G33    30.22R
MILES CITY     CLOUDY    65  47  52 W36G47    29.95R
EKALAKA          N/A     59  42  53 W32       29.94R
FORSYTH          N/A     63  46  55 W22G32    30.02R
LAUREL           N/A     66  36  33 W21       30.13R
ROUNDUP          N/A     63  40  42 W21       30.01R
$$

REGIONAL REPORTS...DAKOTAS

CITY           SKY/WX    TMP DP  RH WIND       PRES   REMARKS
WILLISTON      LGT RAIN  59  55  87 W31G46    29.54R FOG
MINOT          CLOUDY    66  53  63 SW24G36   29.52F
DICKINSON      PTSUNNY   64  50  60 W41G55    29.74R
BEACH          MOCLDY    57  55  94 W36G53    29.80R
CROSBY         CLOUDY    59  59 100 SW26G38   29.37F FOG
BISMARCK       CLOUDY    71  49  45 W32G44    29.73S
GRAND FORKS    MOSUNNY   76  59  55 SW21G28   29.61F
FARGO          MOSUNNY   77  60  55 SW21G29   29.70R
BUFFALO SD       N/A     66  43  43 W43G61    29.88R
RAPID CITY     SUNNY     74  42  31 W16       30.02S
$$

REGIONAL REPORTS...WYOMING/IDAHO/WASHINGTON

CITY           SKY/WX    TMP DP  RH WIND       PRES   REMARKS
GILLETTE       MOSUNNY   68  36  30 W23G29    30.10R
SHERIDAN       CLOUDY    67  37  33 NW25G36   30.11R
BUFFALO WY     MOSUNNY   64  37  36 N8        30.16R
CODY           MOSUNNY   63  30  29 W15G25    30.21R
YELLOWSTONE LA   N/A     45  31  58 VRB6      30.39R
IDAHO FALLS    MOSUNNY   61  35  37 N6        30.33S
SALMON         CLOUDY    55  41  58 CALM      30.33S
BOISE          SUNNY     70  39  32 W6        30.26F
SPOKANE        MOSUNNY   69  41  36 SE6       30.23S
$$

REGIONAL REPORTS...ALBERTA

CITY           SKY/WX    TMP DP  RH WIND       PRES   REMARKS
EDMONTON       MOSUNNY   70  46  43 NW14G21   29.94F
CALGARY        PTSUNNY   66  39  37 N8G18     30.05F
LETHBRIDGE     PTSUNNY   70  41  35 W26G33    30.05R
MEDICINE HAT   PTSUNNY   73  43  33 NW26G35   29.94R
WATERTON GATE    N/A     64  43  45 SW18G26     N/A
MILK RIVER       N/A     70  39  32 NW21G28     N/A
$$

REGIONAL REPORTS...SASKATCHEWAN

CITY           SKY/WX    TMP DP  RH WIND       PRES   REMARKS
SWIFT CURRENT  LGT RAIN  54 N/A N/A NW21G31   29.72R
REGINA         LGT RAIN  61  61 100 NW5       29.27R FOG
SASKATOON      LGT RAIN  59  55  88 N21G29    29.65R
CYPRESS HILLS    N/A     55  46  71 NW13G22     N/A
VAL MARIE        N/A     55  52  88 W29G37      N/A
ROCKGLEN         N/A     52  52 100 W32G46      N/A
ASSINIBOIA       N/A     68  48  49 NW16G23     N/A
$$


USA.gov is the U.S. government's official web portal to all federal, state and local government web resources and services.